Los Angeles, CA

1:00 AM PDT on July 22, 2017 (GMT -0700)
Los Angeles International

Weather History for KLAX - November, 2012

Change the Weather History Date:

Thursday, November 29, 2012

  Actual Average Record
Temperature  
Mean Temperature 61 °F 58 °F  
Max Temperature 63 °F 66 °F 85 °F (1977)
Min Temperature 58 °F 50 °F 41 °F (1975)
Degree Days  
Heating Degree Days 4 7  
Month to date heating degree days 86 131  
Since 1 July heating degree days 103 175  
Cooling Degree Days 0 0  
Month to date cooling degree days 24 18  
Year to date cooling degree days 735 549  
Growing Degree Days 10 (Base 50)    
Moisture  
Dew Point 59 °F    
Average Humidity 95    
Maximum Humidity 100    
Minimum Humidity 90    
Precipitation  
Precipitation 0.27 in 0.04 in 1.64 in (1985)
Month to date precipitation 0.64 1.06  
Year to date precipitation 5.40 10.72  
Since 1 July precipitation 0.79  
Sea Level Pressure  
Sea Level Pressure 30.18 in    
Wind  
Wind Speed 8 mph (ESE)    
Max Wind Speed 13 mph    
Max Gust Speed 20 mph    
Visibility 3 miles    
Events Rain    
T = Trace of Precipitation, MM = Missing Value Source: NWS Daily Summary

Daily Weather History Graph

Daily Weather History Graph

Search for Another Location

Airport or City:

Trip Planner

Search our weather history database for the weather conditions in past years. The results will help you decide how hot, cold, wet, or windy it might be!

Date:

Astronomy

Nov. 29, 2012 Rise Set
Actual Time 6:39 AM PST 4:44 PM PST
Civil Twilight 6:12 AM PST 5:11 PM PST
Nautical Twilight 5:41 AM PST 5:42 PM PST
Astronomical Twilight 5:11 AM PST 6:12 PM PST
Moon 5:51 PM PST (11/29) 7:29 AM PST (11/29)
Length of Visible Light 10h 59m
Length of Day
10h 05m
Full, 99% of the Moon is Illuminated
Nov 29
Full
Dec 6
Last Quarter
Dec 13
New
Dec 19
First Quarter
Dec 28
Full

Hourly Weather History & Observations

Time (PST) Temp. Dew Point Humidity Pressure Visibility Wind Dir Wind Speed Gust Speed Precip Events Conditions
12:34 AM 59.0 °F 57.2 °F 94% 30.18 in 2.0 mi East 11.5 mph - 0.03 in Rain Light Rain
12:53 AM 59.0 °F 57.0 °F 93% 30.18 in 1.5 mi East 10.4 mph - 0.06 in Rain Light Rain
1:53 AM 57.9 °F 57.0 °F 97% 30.17 in 1.5 mi East 10.4 mph - 0.07 in Rain Rain
2:53 AM 57.9 °F 57.0 °F 97% 30.18 in 1.5 mi East 9.2 mph - 0.05 in Rain Light Rain
3:53 AM 57.9 °F 57.0 °F 97% 30.17 in 1.5 mi East 9.2 mph - 0.04 in Rain Light Rain
4:48 AM 57.2 °F 57.2 °F 100% 30.17 in 2.5 mi East 8.1 mph - 0.01 in   Overcast
4:53 AM 57.9 °F 57.0 °F 97% 30.17 in 2.5 mi East 9.2 mph - 0.01 in Rain Light Rain
5:53 AM 57.9 °F 57.0 °F 97% 30.19 in 1.5 mi East 9.2 mph - 0.04 in   Overcast
6:53 AM 59.0 °F 57.0 °F 93% 30.20 in 1.8 mi East 11.5 mph - 0.00 in   Overcast
7:53 AM 59.0 °F 57.0 °F 93% 30.21 in 1.2 mi East 10.4 mph - N/A   Overcast
8:53 AM 60.1 °F 57.9 °F 93% 30.22 in 1.0 mi ESE 11.5 mph - 0.00 in   Light Drizzle
9:30 AM 60.8 °F 57.2 °F 88% 30.23 in 2.5 mi East 8.1 mph - 0.00 in   Overcast
9:53 AM 61.0 °F 57.9 °F 90% 30.23 in 2.5 mi ESE 8.1 mph - 0.00 in   Overcast
10:02 AM 60.8 °F 57.2 °F 88% 30.23 in 3.0 mi SE 10.4 mph - N/A   Overcast
10:53 AM 61.0 °F 59.0 °F 93% 30.21 in 3.0 mi East 8.1 mph - N/A   Overcast
11:53 AM 62.1 °F 59.0 °F 90% 30.19 in 3.0 mi ESE 9.2 mph - N/A   Overcast
12:53 PM 62.1 °F 60.1 °F 93% 30.17 in 3.0 mi ESE 6.9 mph - N/A   Overcast
1:53 PM 62.1 °F 60.1 °F 93% 30.16 in 3.0 mi SE 8.1 mph - N/A   Overcast
2:53 PM 62.1 °F 60.1 °F 93% 30.16 in 3.0 mi SE 5.8 mph - N/A   Overcast
3:19 PM 62.6 °F 60.8 °F 94% 30.15 in 3.0 mi ESE 5.8 mph - N/A   Overcast
3:53 PM 62.1 °F 61.0 °F 96% 30.15 in 4.0 mi SSE 5.8 mph - N/A   Overcast
4:21 PM 62.6 °F 60.8 °F 94% 30.15 in 2.5 mi SE 4.6 mph - N/A   Overcast
4:53 PM 62.1 °F 61.0 °F 96% 30.15 in 3.0 mi SE 3.5 mph - N/A   Overcast
5:35 PM 62.6 °F 60.8 °F 94% 30.15 in 4.0 mi East 4.6 mph - N/A   Overcast
5:53 PM 63.0 °F 61.0 °F 93% 30.15 in 4.0 mi East 4.6 mph - N/A   Overcast
6:17 PM 62.6 °F 60.8 °F 94% 30.16 in 4.0 mi ESE 5.8 mph - N/A   Overcast
6:53 PM 63.0 °F 61.0 °F 93% 30.16 in 4.0 mi SE 3.5 mph - N/A   Overcast
7:53 PM 63.0 °F 61.0 °F 93% 30.16 in 4.0 mi SE 3.5 mph - N/A   Overcast
8:26 PM 62.6 °F 60.8 °F 94% 30.16 in 5.0 mi ESE 5.8 mph - N/A   Overcast
8:53 PM 63.0 °F 61.0 °F 93% 30.16 in 4.0 mi East 5.8 mph - N/A   Overcast
9:19 PM 62.6 °F 60.8 °F 94% 30.16 in 5.0 mi ESE 6.9 mph - N/A   Overcast
9:53 PM 63.0 °F 61.0 °F 93% 30.17 in 6.0 mi ESE 5.8 mph - N/A   Overcast
10:53 PM 63.0 °F 61.0 °F 93% 30.17 in 4.0 mi Variable 5.8 mph - 0.00 in   Drizzle
11:53 PM 62.1 °F 61.0 °F 96% 30.15 in 3.0 mi East 4.6 mph - 0.00 in   Light Drizzle